Location: ???
(33.2810°N, 35.8304°E)
Time: 07:41:37
(UTC+00:00)

Daily predictions for brighter satellites

Satellite Brightness Start Highest point End
(mag) Time Altitude Azimuth Time Altitude Azimuth Time Altitude Azimuth
Cosmos 1624 Rocket 4.1 16:57:02 10° SSW 17:02:20 85° ESE 17:07:42 10° NNE
Cosmos 2278 Rocket 2.3 16:58:36 10° S 17:04:09 61° ESE 17:09:45 10° NNE
Cosmos 2034 Rocket 4.1 16:59:13 10° N 17:05:18 60° E 17:11:21 10° SSE
Cosmos 1816 Rocket 4.5 17:00:46 10° S 17:06:49 66° E 17:12:52 10° NNE
HJ-1C 4.3 17:04:10 10° S 17:07:21 48° W 17:10:34 10° NNW
Cosmos 1908 Rocket 3.6 17:08:06 10° N 17:12:32 65° E 17:16:58 10° SSE
CREW DRAGON DEMO-1 DEB 3.3 17:11:01 10° NW 17:14:02 54° SW 17:17:03 10° SSE
Resurs 01 Rocket 3.4 17:13:46 10° ESE 17:16:34 17° ENE 17:19:20 10° NNE
Cosmos 1515 3.8 17:13:57 10° S 17:17:40 54° E 17:21:24 10° NNE
STARLINK-1095 4.4 17:16:16 10° NNW 17:20:12 41° NE 17:24:00 11° ESE
Ariane Rocket 3.0 17:15:26 10° SSE 17:20:29 88° ENE 17:25:36 10° NNW
SPOT 3 Rocket 4.4 17:16:07 10° SE 17:20:42 34° ENE 17:25:18 10° N
Orbus 7S 4.2 17:20:13 10° SW 17:22:36 26° SSE 17:26:31 10° ESE
GPS 2-04 Rocket1 2.8 17:19:20 10° W 17:22:45 63° N 17:26:18 10° ENE
Cosmos 371 Rocket 3.7 17:18:34 10° S 17:23:03 40° ESE 17:27:36 10° NNE
STARLINK-1077 4.2 17:21:12 10° NNW 17:25:11 45° NE 17:28:47 12° ESE
H-2A R/B 2.5 17:24:29 10° S 17:29:25 62° W 17:34:32 10° NNW
STARLINK-1075 4.1 17:26:10 10° NW 17:30:12 50° NE 17:33:35 14° ESE
SL-4 R/B 3.9 17:27:44 10° SSE 17:30:12 14° ESE 17:32:43 10° E
BREEZE M DEB (TANK) 4.4 17:16:45 10° SW 17:31:21 77° NW 17:35:13 10° NE
Okean 1-7 3.5 17:29:32 10° SSW 17:33:45 62° W 17:37:59 10° N
SL-08 RB Rocket 3.7 17:29:23 10° SSE 17:33:59 84° ENE 17:38:33 10° N
STARLINK-1093 3.9 17:31:05 10° NW 17:35:09 56° NE 17:38:20 16° ESE
EXPRESS MD2 3.2 17:34:06 10° WSW 17:36:21 55° NW 17:39:47 10° NE
Aureole 1 Rocket 3.7 17:31:31 10° NNW 17:36:32 74° ENE 17:43:11 10° SSE
MOS 1 4.4 17:31:31 10° SSE 17:37:13 86° WSW 17:42:58 10° NNW
MetOp-A 4.3 17:32:21 10° SSE 17:37:36 60° ENE 17:42:52 10° N
NOSS 8 (E) 4.3 17:35:03 10° SSW 17:38:51 81° ESE 17:41:59 10° NNE
STARLINK-1074 3.8 17:36:03 10° NW 17:40:09 63° NE 17:43:08 18° ESE
Cosmos 1634 Rocket 4.3 17:34:36 10° N 17:40:44 50° E 17:46:21 12° SSE
Resurs 1-3 4.0 17:37:23 13° SE 17:41:01 46° ENE 17:45:13 10° N
NOSS 2-2 (D) 4.2 17:38:22 10° SSE 17:41:17 22° ESE 17:44:08 10° ENE
CZ-2C R/B 3.7 17:38:48 10° NNE 17:43:19 88° WNW 17:47:55 10° SSW
Cosmos 724 4.4 17:37:42 10° NNW 17:43:39 80° WSW 17:49:15 12° SSE
Cosmos 676 Rocket 4.3 17:38:46 10° N 17:43:54 51° ENE 17:47:53 17° SE
STARLINK-1088 3.6 17:45:59 10° NW 17:50:07 79° NE 17:52:42 22° SE
Cosmos 1300 Rocket 4.5 17:49:32 10° NNE 17:53:29 31° ENE 17:55:27 22° ESE
Cosmos 304 Rocket 4.3 17:50:51 12° SSE 17:54:50 37° ESE 17:59:14 10° NE
Cosmos 1437 Rocket 3.5 17:53:34 23° SE 17:54:58 30° E 17:58:19 10° NNE
Cosmos 1356 4.3 17:51:43 10° NNW 17:55:02 47° W 17:58:21 10° S
STARLINK-1115 3.6 17:50:56 10° NW 17:55:05 88° NE 17:57:29 24° SE
Meteor 1-4 Rocket 3.9 17:52:59 10° SSW 17:56:13 38° W 17:59:28 10° N
Aureole 2 Rocket 2.9 17:55:56 29° SE 17:56:29 31° ESE 17:59:16 10° NE
NOSS 2-2 (E) 3.1 17:55:01 10° SSW 17:58:31 51° ESE 18:02:03 10° NE
STARLINK-1076 3.6 17:55:54 10° NW 18:00:02 83° SW 18:02:15 27° SE
ARGOS 4.4 17:55:33 10° SSW 18:00:32 39° W 18:05:34 10° NNW
Lacrosse 5 2.9 17:56:10 10° NNW 18:00:47 35° NE 18:03:43 19° E
Meteor 2-4 Rocket 3.7 17:56:13 10° S 18:01:35 81° W 18:06:57 10° N
USA 186 4.2 18:00:55 10° SW 18:02:19 14° W 18:03:47 10° WNW
BREEZE M DEB (TANK) 3.7 18:00:26 10° W 18:02:19 19° SW 18:03:04 16° SSW
COSMOS 2406 3.3 17:57:36 10° NNW 18:03:22 77° WSW 18:07:52 17° SSE
Cosmos 909 Rocket 4.4 17:56:46 10° NNW 18:03:57 69° WSW 18:09:02 16° SSE
STARLINK-1092 3.6 18:00:54 10° NW 18:05:02 74° SW 18:07:03 29° SSE
CZ-2C R/B 3.3 17:59:48 10° N 18:05:20 60° WNW 18:10:49 10° SSW
Cosmos 1674 Rocket 4.2 18:05:05 27° SE 18:06:40 36° E 18:10:42 10° NNE
Cosmos 2297 3.7 18:02:52 10° S 18:08:22 58° ESE 18:13:58 10° NNE
Cosmos 1943 Rocket 3.3 18:08:56 22° ESE 18:09:22 23° E 18:13:36 10° NE
Cosmos 1378 Rocket 4.5 18:08:48 27° ESE 18:09:40 29° E 18:13:28 10° NNE
ISS -1.9 18:07:12 10° NNW 18:09:54 22° NE 18:11:10 18° ENE
STARLINK-1080 3.8 18:05:53 10° NW 18:09:59 65° SW 18:11:50 31° SSE
Cosmos 1975 3.6 18:06:17 10° NNW 18:10:11 49° W 18:13:40 12° SSW
Intercosmos 24 4.3 18:08:00 10° N 18:11:25 41° E 18:12:33 32° ESE
STARLINK-1090 3.9 18:10:53 10° NW 18:14:57 58° SW 18:16:37 32° SSE
OAO 1 4.4 18:09:41 10° WSW 18:15:10 71° SSE 18:19:59 14° E
Cosmos 1833 Rocket 2.6 18:09:34 10° NNW 18:15:12 82° ENE 18:18:26 27° SSE
BREEZE-M DEB (TANK) 2.8 18:13:24 10° WNW 18:15:35 51° SW 18:16:01 45° S
Cosmos 1452 Rocket 4.1 18:11:34 10° SSW 18:16:44 58° WNW 18:21:57 10° N
Cosmos 332 Rocket 4.1 18:13:51 10° SSW 18:18:44 71° WNW 18:23:38 10° NNE
Hubble Space Telescope 2.8 18:16:31 10° WSW 18:18:49 15° SSW 18:19:09 14° SSW
STARLINK-1089 4.1 18:15:55 10° NW 18:19:55 51° SW 18:21:25 33° S
Sakura Rocket 4.4 18:13:57 10° WSW 18:20:19 62° S 18:26:27 20° ESE
Cosmos 2082 Rocket 2.5 18:16:07 10° N 18:21:43 54° ENE 18:24:10 32° SE
Milstar 3 Cent rocket 4.1 18:14:46 10° SSW 18:22:06 39° SE 18:36:28 10° E
NOSS 2-2 (C) 2.9 18:19:26 10° SSW 18:23:04 82° ESE 18:26:41 10° NNE
STARLINK-1107 4.3 18:20:55 10° WNW 18:24:52 45° SW 18:26:11 33° S
Cosmos 2369 Rocket 3.5 18:25:40 22° E 18:25:40 22° E 18:29:14 10° NE
ATLAS 2AS CENTAUR R/B 4.1 18:25:53 23° ESE 18:25:53 23° ESE 18:31:41 10° ENE
Cosmos 1461 4.2 18:24:09 10° SW 18:27:58 40° WNW 18:32:00 10° NNE
STARLINK-1066 4.5 18:25:57 10° WNW 18:29:49 40° SW 18:30:57 32° SSW
OE (NEXTSAT) 4.3 18:26:25 10° SW 18:29:54 86° NW 18:32:08 21° NE
ATLAS 3B CENTAUR R/B 3.7 18:15:19 10° WSW 18:31:56 62° S 18:36:44 26° ESE
SPOT 5 4.3 18:35:04 24° E 18:36:01 25° ENE 18:40:18 10° NNE
STARLINK-1096 4.4 18:33:16 10° NNW 18:37:10 39° NE 18:38:00 35° ENE
ERS-1 Rocket 3.9 18:39:41 30° E 18:40:25 31° ENE 18:44:49 10° N
SAR-Lupe-2 3.4 18:36:48 10° NNE 18:40:25 87° WNW 18:40:50 68° SSW
ASTRO E2 2.6 18:36:58 10° W 18:40:50 67° S 18:40:50 67° S
STARLINK-1079 4.3 18:38:11 10° NNW 18:42:09 43° NE 18:42:47 40° ENE
Cosmos 1066 Rocket 4.0 18:40:37 35° S 18:42:55 75° E 18:48:16 10° NNE
Nadezhda 4 Rocket 3.9 18:43:57 35° SSE 18:46:35 69° E 18:52:39 10° NNE
STARLINK-1116 4.1 18:43:08 10° NNW 18:47:09 48° NE 18:47:34 46° ENE
USA 245 3.7 18:50:17 42° N 18:50:17 42° N 18:52:14 10° N
SL-4 R/B 3.0 18:47:47 10° NW 18:49:44 26° W 18:49:44 26° W
MetOp-B 4.2 18:50:40 40° S 18:52:39 75° WSW 18:58:00 10° NNW
Resurs 01 Rocket 2.9 18:50:40 24° SSW 18:52:42 36° W 18:56:49 10° NNW
STARLINK-1094 3.8 18:53:01 10° NW 18:57:07 60° NE 18:57:08 60° NE
Cosmos 1741 Rocket 3.9 18:53:11 10° NNW 18:58:25 89° WSW 18:59:27 59° SSE
Okean 1 Rocket 3.1 18:56:28 10° N 19:00:42 63° ENE 19:00:42 63° ENE
STARLINK-1117 3.8 18:57:58 10° NW 19:01:55 66° NNE 19:01:55 66° NNE
Cosmos 2279 Rocket 4.5 18:56:18 10° NNW 19:02:21 56° W 19:05:36 27° SSW
GPS 2-04 Rocket1 3.1 18:58:51 10° WNW 19:01:44 52° NW 19:01:44 52° NW
Spot 2 Rocket 3.6 19:03:52 51° SSW 19:04:59 69° WSW 19:10:01 10° NNW
Terra 2.9 19:05:29 32° ENE 19:05:29 32° ENE 19:09:25 10° N
SPOT 1/Viking Rocket 3.4 19:04:39 65° SSE 19:05:25 83° ENE 19:10:35 10° N
STARLINK-1078 3.8 19:02:56 10° NW 19:06:42 68° N 19:06:42 68° N
Cosmos 1850 Rocket 4.2 19:02:44 10° NNW 19:08:03 68° WSW 19:09:06 54° SSW
BREEZE-M DEB (TANK) 3.2 19:08:16 55° WNW 19:08:38 59° NNW 19:14:48 10° NE
SL-4 R/B 2.5 19:04:43 10° SW 19:09:23 74° NW 19:14:13 10° NE
CARTOSAT-1 3.9 19:10:42 53° NE 19:10:42 53° NE 19:14:26 10° N
STARLINK-1108 3.9 19:07:55 10° NW 19:11:29 65° NNW 19:11:29 65° NNW
STARLINK-1071 4.1 19:12:53 10° NW 19:16:16 58° NW 19:16:16 58° NW
STARLINK-1110 4.3 19:16:41 10° NW 19:19:54 53° WNW 19:19:54 53° WNW
Cosmos 1302 Rocket 4.1 19:30:04 66° WSW 19:30:38 72° WNW 19:35:56 10° NNE
Cosmos 1092 Rocket 3.9 19:30:54 61° SSW 19:32:01 81° W 19:38:11 10° N
H-2A ROCKET BODY 4.0 19:28:44 10° SW 19:35:11 60° SSE 20:12:08 10° E
CENTAUR R/B 4.3 19:33:15 10° NNW 19:40:36 34° NE 19:43:59 26° E
Lacrosse 5 3.2 19:39:15 10° WNW 19:42:55 29° WSW 19:42:55 29° WSW
Cosmos 1627 Rocket 4.4 19:45:25 71° SSW 19:46:06 81° W 19:52:30 10° N
ISS -0.6 19:43:43 10° WNW 19:44:06 12° WNW 19:44:06 12° WNW
NOSS 3-4 (A) 3.5 19:49:10 63° ENE 19:49:10 63° ENE 19:54:23 10° NNE
NOSS 3-4 (C) 3.5 19:49:19 62° ENE 19:49:19 62° ENE 19:54:29 10° NNE
Cosmos 1428 Rocket 4.4 19:52:05 80° SW 19:52:24 84° W 19:58:43 10° N
Cosmos 1943 Rocket 3.3 19:50:22 26° WSW 19:52:46 38° WNW 19:57:58 10° N
Cosmos 2082 Rocket 4.3 20:01:52 10° WNW 20:05:14 16° W 20:06:02 16° WSW
SeaSat 1 3.7 20:02:01 10° NNE 20:04:48 34° NE 20:04:48 34° NE
Cosmos 2369 Rocket 3.2 20:07:22 36° W 20:08:39 41° WNW 20:13:58 10° N
SPOT 5 4.3 20:14:18 32° W 20:14:18 32° W 20:18:34 10° NNW
ATLAS 2AS CENTAUR R/B 3.2 20:13:12 42° SW 20:16:10 69° WNW 20:24:10 10° NNE
Aureole 3 Rocket 4.5 20:09:17 10° N 20:16:20 83° E 20:17:12 74° SSE
ATLAS CENTAUR R/B 3.7 20:23:28 20° NNE 20:23:28 20° NNE 20:24:52 10° NNE
Cosmos 1656 Rocket 4.2 20:23:31 56° NNW 20:23:31 56° NNW 20:28:11 10° NNE
NOSS 3-2 (A) 4.0 20:19:16 10° NNW 20:27:13 83° WSW 20:27:48 78° S
Thor Agena Rocket 4.3 20:22:36 10° N 20:26:36 51° NNW 20:26:36 51° NNW
Cosmos 1553 Rocket 4.1 20:21:37 10° N 20:27:04 70° N 20:27:04 70° N
Cosmos 1655 Rocket 4.2 20:30:06 68° N 20:30:06 68° N 20:35:29 10° N
USA 238 DEB 3.9 20:31:32 10° NW 20:38:25 69° W 20:38:25 69° W
USA 238 3.9 20:31:38 10° NW 20:38:32 69° W 20:38:32 69° W
BREEZE-M DEB (TANK) 4.5 20:32:03 10° WSW 20:39:13 35° W 20:39:13 35° W
Terra 4.0 20:44:22 18° WNW 20:44:22 18° WNW 20:46:28 10° NW
Cosmos 2266 Rocket 4.3 20:49:09 59° N 20:49:09 59° N 20:53:58 10° N
ATLAS 3B CENTAUR R/B 4.3 20:46:10 10° W 20:50:57 26° WSW 20:50:57 26° WSW
COSMOS 2455 3.8 21:09:45 40° NW 21:09:45 40° NW 21:15:14 10° N
Cosmos 2297 Rocket 4.4 21:21:00 10° NNE 21:24:13 15° NE 21:25:15 15° ENE
CENTAUR R/B 3.4 21:23:30 10° NW 21:31:08 59° W 21:31:08 59° W
ATLAS 3B R/B 2.9 21:27:47 10° NNW 21:33:57 67° NNE 21:33:57 67° NNE
Cosmos 1697 Rocket 4.5 21:51:04 23° ENE 21:51:04 23° ENE 21:53:44 10° NE
Cosmos 2227 Rocket 3.8 21:56:40 10° N 22:01:25 27° ENE 22:01:43 27° ENE
FALCON 9 R/B 2.8 22:19:35 82° NNE 22:19:35 82° NNE 22:35:12 10° E
Nadezhda 1 Rocket 4.3 22:17:35 10° N 22:22:56 64° NNE 22:22:56 64° NNE
CZ-4C R/B 3.0 22:36:20 43° N 22:36:20 43° N 22:40:12 10° NNE
Cosmos 2369 4.2 22:43:44 56° NNE 22:43:44 56° NNE 22:48:08 10° NNE
Cosmos 1980 Rocket 3.1 22:45:27 41° ENE 22:45:27 41° ENE 22:49:44 10° NNE
Resurs 1-4 Rocket 3.1 22:41:58 10° NNE 22:46:05 41° ENE 22:46:05 41° ENE
SJ 16-02 3.2 22:45:02 10° N 22:47:12 28° N 22:47:12 28° N
USA 215 3.6 22:52:57 50° WNW 22:52:57 50° WNW 22:57:47 10° NW
CZ-2D R/B 2.7 22:55:35 10° NNE 22:59:51 52° ENE 22:59:51 52° ENE
Cosmos 2219 4.2 22:58:53 10° NNW 23:02:17 35° NW 23:02:17 35° NW
Cosmos 2297 Rocket 2.9 23:03:07 10° NNW 23:07:00 43° NW 23:07:00 43° NW
Lacrosse 4 Rocket 3.0 23:08:32 10° N 23:11:40 33° NE 23:11:40 33° NE
Cosmos 540 Rocket 3.9 23:14:56 58° N 23:14:56 58° N 23:19:04 10° NNE
Meteor 2-10 Rocket 4.2 23:10:59 10° NNW 23:14:39 46° NNW 23:14:39 46° NNW
Cosmos 1937 Rocket 3.7 23:12:59 10° NNW 23:17:40 67° NNE 23:17:40 67° NNE
Cosmos 2082 3.8 23:13:03 10° NNW 23:18:42 71° ENE 23:18:47 71° ENE
Cosmos 1898 Rocket 4.1 23:13:41 10° NNW 23:17:36 49° NW 23:17:36 49° NW
Cosmos 2322 Rocket 4.0 23:18:45 18° ESE 23:19:54 20° E 23:23:48 10° NE
SL-16 R/B 2.6 23:19:18 64° SE 23:20:11 75° ENE 23:26:20 10° N
Cosmos 2278 3.9 23:21:32 63° NW 23:21:32 63° NW 23:26:44 10° NNE
AQUA 4.3 23:16:52 10° NNE 23:20:51 56° NE 23:20:51 56° NE
Cosmos 2181 Rocket 3.9 23:18:58 10° N 23:25:27 88° E 23:26:09 73° SSE
CZ-4B R/B 3.5 23:24:06 10° NNE 23:29:08 81° NE 23:29:08 81° NE
Cosmos 1697 Rocket 3.8 23:32:47 32° WNW 23:32:47 32° WNW 23:37:46 10° N
Cosmos 1814 Rocket 4.4 23:33:35 54° NW 23:33:35 54° NW 23:38:23 10° N
Cosmos-2242 4.3 23:30:03 10° NNW 23:32:30 33° NNW 23:32:30 33° NNW
ATLAS CENTAUR R/B 2.7 23:30:36 10° NW 23:34:20 79° NE 23:43:57 10° SE
NPP 3.6 23:29:45 10° N 23:34:57 71° WNW 23:34:57 71° WNW
Cosmos 2227 Rocket 3.5 23:40:22 10° NW 23:43:30 27° WNW 23:43:30 27° WNW
Cosmos 372 Rocket 4.4 23:41:43 10° N 23:46:48 58° ENE 23:48:30 39° SE
CRYOSAT 2 4.3 23:44:09 10° N 23:49:03 80° E 23:49:13 78° ESE
SL-16 R/B 2.8 23:50:09 41° SE 23:51:25 49° ESE 23:56:51 10° NNE
